Flag for Germany Weather past 2 weeks in Greven, North Rhine-Westphalia, Germany

Now
50 °F

Broken clouds.


Feels Like: 46 °F
Forecast: 36 / 56 °F
Wind: 12 mph from West

Location: Muenster / Osnabrueck

Current Time: Apr 28, 2015 at 4:35:37 PM

Latest Report: Apr 28, 2015 at 4:20 PM


Visibility: N/A

Pressure: 30.01 "Hg

Humidity: 67%

Dew point: 39 °F

Location of GrevenLocation

Historic Weather in Greven — Graph

°F

Greven temperature yesterday

Maximum temperature yesterday: 54 °F (at 3:50 PM)
Minimum temperature yesterday: 43 °F (at 7:20 AM)
Average temperature yesterday: 48 °F

Past Weeks' High & Low Weather Summary

 TemperatureHumidityPressure
High73 °F (Apr 15, 2:50 PM)100% (Apr 15, 6:20 AM)30.45 "Hg (Apr 15, 6:20 AM)
Low30 °F (Apr 28, 4:20 AM)28% (Apr 21, 3:20 PM)29.65 "Hg (Apr 27, 2:20 AM)
Average50 °F70%30.08 "Hg
* Reported Apr 13 3:20 PM — Apr 28 3:20 PM, Greven, Weather by CustomWeather, © 2015

Note: Actual official high and low records may vary slightly from our data, if they occured in-between our weather recording intervals... More about our weather records

Advertising

Greven weather history for previous 24 hours

 ConditionsComfort  
Time TempWeatherWind HumidityBarometerVisibility
3:20 PM
Tue, Apr 28
46 °FSprinkles. More clouds than sun.12 mph82%30.01 "HgN/A
2:50 PM43 °FSprinkles. Mostly cloudy.18 mph93%30.01 "HgN/A
2:20 PM52 °FPartly sunny.14 mph54%29.98 "HgN/A
1:50 PM52 °FPartly sunny.12 mph50%29.95 "HgN/A
1:20 PM54 °FScattered clouds.10 mph47%29.95 "HgN/A
12:50 PM52 °FScattered clouds.12 mph47%29.95 "HgN/A
12:20 PM50 °FScattered clouds.9 mph50%29.95 "HgN/A
11:50 AM50 °FSunny.7 mph47%29.95 "Hg10 mi
11:20 AM48 °FSunny.7 mph50%29.95 "Hg10 mi
10:50 AM46 °FSunny.7 mph57%29.95 "Hg10 mi
10:20 AM45 °FSunny.7 mph61%29.95 "Hg10 mi
9:50 AM45 °FSunny.7 mph61%29.95 "Hg10 mi
9:20 AM43 °FSunny.2 mph71%29.95 "Hg10 mi
8:50 AM39 °FSunny.1 mph81%29.95 "Hg10 mi
8:20 AM36 °FSunny.2 mph93%29.92 "Hg10 mi
7:50 AM34 °FSunny.2 mph93%29.92 "Hg10 mi
7:20 AM34 °FFog.1 mph100%29.92 "HgN/A
6:50 AM32 °FFog.1 mph100%29.89 "HgN/A
6:20 AM30 °FFog.No wind100%29.89 "HgN/A
5:20 AM30 °FFog.1 mph100%29.89 "HgN/A
4:50 AM30 °FFog.1 mph100%29.89 "HgN/A
4:20 AM30 °FClear.2 mph100%29.86 "Hg10 mi
3:50 AM32 °FClear.2 mph93%29.86 "Hg10 mi
3:20 AM32 °FClear.1 mph93%29.86 "Hg10 mi
2:50 AM34 °FClear.2 mph93%29.86 "Hg10 mi
2:20 AM34 °FClear.2 mph93%29.86 "Hg10 mi
1:50 AM36 °FClear.3 mph87%29.86 "Hg10 mi
1:20 AM36 °FClear.3 mph87%29.86 "Hg10 mi
12:50 AM39 °FClear.3 mph75%29.86 "Hg10 mi
12:20 AM39 °FClear.3 mph75%29.86 "Hg10 mi
11:20 PM
Mon, Apr 27
43 °FClear.5 mph71%29.83 "Hg10 mi
10:50 PM43 °FClear.5 mph71%29.83 "Hg10 mi
10:20 PM45 °FClear.7 mph66%29.83 "Hg10 mi
9:50 PM45 °FClear.8 mph66%29.83 "Hg10 mi
9:20 PM46 °FSunny.6 mph66%29.83 "Hg10 mi
8:50 PM48 °FSunny.7 mph62%29.80 "Hg10 mi
8:20 PM48 °FSunny.8 mph62%29.80 "Hg10 mi
7:50 PM50 °FSunny.7 mph62%29.77 "Hg10 mi
7:20 PM50 °FSunny.8 mph62%29.77 "Hg10 mi
6:50 PM52 °FBroken clouds.7 mph54%29.77 "HgN/A
6:20 PM52 °FSunny.8 mph50%29.77 "Hg10 mi
5:50 PM52 °FSunny.9 mph50%29.77 "Hg10 mi
5:20 PM54 °FBroken clouds.7 mph47%29.77 "HgN/A
4:50 PM54 °FBroken clouds.12 mph47%29.77 "HgN/A
4:20 PM54 °FBroken clouds.7 mph51%29.77 "HgN/A
Weather by CustomWeather, © 2015

See weather overviewHow to use our weather pages